Simultaneous Nadir Overpasses (SNOs) Predictions

Prediction of SNOs between METOP-A and TERRA Satellite Orbit:

Table of predicted SNOs for the next 14.0 days since TLE Epoch: 1/19/2014
Index Date (METOP-A) Time (METOP-A) Lat,Lon (METOP-A) SZA (METOP-A ) Date (TERRA) Time (TERRA) Lat,Lon (TERRA) SZA (TERRA ) Distance(km) Time Diff (sec)
1 01/20/2014 23:52:10 -81.33, 49.23 76.36 01/20/2014 23:52:53 -81.32, 49.21 76.35 0.78 43
2 01/21/2014 00:42:50 81.33,-142.97 103.69 01/21/2014 00:42:19 81.33,-143.06 103.66 1.64 31
3 01/23/2014 19:26:29 -81.33, 115.89 77.00 01/23/2014 19:27:04 -81.32, 115.72 77.01 2.84 35
4 01/23/2014 20:17:10 81.33, -76.73 103.00 01/23/2014 20:16:30 81.33, -76.58 103.00 2.53 40
5 01/26/2014 15:00:50 -81.33,-177.89 77.73 01/26/2014 15:01:16 -81.32,-177.88 77.72 0.75 26
6 01/
